Location: Home
(42.5358°N, 72.7383°W)
Time: 06:56:34
(UTC-05:00)

Courier 1B - Pass Details

Date: 02 December 2021
Orbit: 962 x 1209 km, 28.3° (Epoch: 25 January)

Event Time Altitude Azimuth Distance (km) Brightness Sun altitude
Rises 19:28:45 0° 250° (WSW) 3,905 11.6 -34.4°
Reaches altitude 10° 19:32:08 10° 237° (WSW) 2,901 10.5 -35.0°
Enters shadow 19:36:40 23° 197° (SSW) 2,049 9.2 -35.8°
Maximum altitude 19:37:30 23° 187° (S) 2,016 - -36.0°
Drops below altitude 10° 19:42:39 10° 137° (SE) 2,769 - -36.9°
Sets 19:45:48 0° 123° (ESE) 3,686 - -37.5°
